Regional Weather Roundup
Issued by NWS New Orleans/Baton Rouge, LA

Home | Current Version | Previous Version | Graphics & Text | Print | Product List | Glossary On
Versions: 1 2 3 4 5 6 7 8 9 10 11 12 13 14 15 16 17 18 19 20 21 22 23 24 25 26 27 28 29 30 31 32 33 34 35 36 37 38 39 40 41 42 43 44 45 46 47 48 49 50
917
ASUS44 KLIX 180010
RWRLIX
NEW ORLEANS REGIONAL WEATHER ROUNDUP
NATIONAL WEATHER SERVICE NEW ORLEANS LA
700 PM CDT WED SEP 17 2014

NOTE: "FAIR" INDICATES FEW OR NO CLOUDS BELOW 12,000 FEET WITH NO
      SIGNIFICANT WEATHER AND/OR OBSTRUCTIONS TO VISIBILITY.
      SKY/WX - SKY CONDITION AND SIGNIFICANT WEATHER.
      TMP - AIR TEMPERATURE.     DP    - DEWPOINT TEMPERATURE.
      RH  - RELATIVE HUMIDITY.   PRES  - PRESSURE.
      HI  - HEAT INDEX.          WCI   - WIND CHILL INDEX.

*  THESE STATIONS ARE NOT NWS OR FAA STATIONS AND ARE NOT UNDER
   NWS QUALITY CONTROL.

LAZ038-040-048-061>063-065>067-069-180100-
SOUTHEAST LOUISIANA

CITY           SKY/WX    TMP DP  RH WIND       PRES   REMARKS
N.O. AUDUBON     N/A     84  76  75 MISG        N/A
6HR MIN TEMP:  84; 6HR MAX TEMP:  90;

N.O. INTL ARPT MOCLDY    84  70  62 N5        29.90S
6HR MIN TEMP:  84; 6HR MAX TEMP:  89;

N.O. LAKEFRONT CLOUDY    84  72  67 SE3       29.91S
6HR MIN TEMP:  84; 6HR MAX TEMP:  86;

N.O. DOWNTOWN* MOCLDY    84  72  65 S7        29.91R
6HR MIN TEMP:  84; 6HR MAX TEMP:  88;

SLIDELL        MOCLDY    82  74  76 CALM      29.90S
6HR MIN TEMP:  82; 6HR MAX TEMP:  89;

BATON ROUGE    MOCLDY    83  74  74 NE3       29.91R
6HR MIN TEMP:  83; 6HR MAX TEMP:  88;

BOOTHVILLE     MOCLDY    82  74  76 CALM      29.91F
6HR MIN TEMP:  82; 6HR MAX TEMP:  88;

BELLE CHASSE   MOCLDY    83  71  67 S9        29.91R
6HR MIN TEMP:  82; 6HR MAX TEMP:  88;

BOGALUSA*        N/A     82  74  77 CALM      29.92R
6HR MIN TEMP:  81; 6HR MAX TEMP:  92;

GALLIANO*      NOT AVBL
NEW ROADS*       N/A     82  74  75 NE3       29.91R
6HR MIN TEMP:  82; 6HR MAX TEMP:  87;

GONZALES*        N/A     80  80  99 CALM      29.90S
6HR MIN TEMP:  80; 6HR MAX TEMP:  88;

HAMMOND*       MOCLDY    82  72  69 CALM      29.92S
HOUMA*         PTCLDY    75  72  88 CALM      29.91S
PORT FOURCHON* CLEAR     82  73  74 SW5       29.94F

$$

MSZ070-080>082-180100-
SOUTHERN MISSISSIPPI

CITY           SKY/WX    TMP DP  RH WIND       PRES   REMARKS
MCCOMB         PTCLDY    82  73  74 CALM      29.92R
6HR MIN TEMP:  81; 6HR MAX TEMP:  88;

GULFPORT       PTCLDY    83  72  69 CALM      29.89S
6HR MIN TEMP:  83; 6HR MAX TEMP:  89;

BILOXI         CLOUDY    82  71  68 SW5       29.90S
PASCAGOULA     PTCLDY    80  73  79 SW3       29.90S
6HR MIN TEMP:  80; 6HR MAX TEMP:  90;

STENNIS ARPT*  CLEAR     79  72  78 CALM      29.91R

$$

COASTAL OBSERVATIONS
LAKE AND NEARSHORE STATIONS

STATION/POSITION TIME  TEMP    WIND        PRES    WAVE
                       AIR SEA DIR/SP/G            HT/PER
                 (UTC) (F)     (DEG/KT/KT) (MB)    (FT/S)
PASCAGOULA       0000   83     230/  7/  8 1012.1
WAVELAND YACHT   0000   82     240/  4/  5 1012.0
GRAND ISLE       0000   83 88  260/  4/  4 1013.6
SOUTHWEST PASS   0000   83 91  260/ 11/ 13 1013.3
NEW CANAL        0000   84 83  360/  2/  3 1013.1
SHELL BEACH      0000   83 82  170/  4/  5 1012.7

OFFSHORE STATIONS

STATION/POSITION TIME  TEMP    WIND        PRES    WAVE
                       AIR SEA DIR/SP/G            HT/PER
                 (UTC) (F)     (DEG/KT/KT) (MB)    (FT/S)

$$




USA.gov is the U.S. government's official web portal to all federal, state and local government web resources and services.